[[{"header":{"parameterUnit":"m.s-1","parameterCategory":1,"la1":30.2992,"la2":30.254,"lo1":-89.0895,"lo2":-89.0443,"dy":0.0025,"dx":0.0025,"nx":19,"ny":19,"refTime":"2026-04-09T21:00:00:Z","depth":0,"parameterNumber":2,"parameterNumberName":"U-component_of_WINDS"},"data":[0,0,0,-3.6102,-3.6103,-3.6136,-3.6136,-3.6213,-3.6214,0,0,0,0,0,0,0,0,0,0,0,-3.6113,-3.6114,-3.6101,-3.6103,-3.6136,-3.6136,-3.6213,-3.6214,0,0,0,0,0,0,0,0,0,0,0,-3.6113,-3.6114,-3.6116,-3.6103,-3.6136,-3.6136,-3.6213,-3.6175,0,0,0,0,0,0,0,0,0,0,-3.6137,-3.6169,-3.6114,-3.6116,-3.6103,-3.6136,-3.6136,-3.6173,-3.6178,-3.6213,0,-3.6251,0,-3.6234,-3.6222,-3.6222,0,0,0,-3.6087,-3.6165,-3.6155,-3.6116,-3.6104,-3.6136,-3.6116,-3.6175,-3.6181,-3.622,-3.6251,-3.6253,-3.6235,-3.6222,-3.6223,-3.648,-3.6482,0,0,-3.6085,-3.6131,-3.6151,-3.6159,-3.6156,-3.6115,-3.6118,-3.6178,-3.6215,-3.6252,-3.6254,-3.6236,-3.6223,-3.6224,-3.6478,-3.6481,0,0,0,-3.6091,-3.613,-3.6117,-3.6157,-3.616,-3.6117,-3.6119,-3.6213,-3.6205,-3.6255,-3.6237,-3.6224,-3.6225,-3.6476,-3.6479,-3.6619,0,0,0,-3.6089,-3.6133,-3.6117,-3.6146,-3.616,-3.6187,-3.6153,-3.62,-3.6206,-3.6237,-3.6224,-3.6226,-3.6474,-3.6478,-3.661,-3.6678,0,0,0,-3.6104,-3.6134,-3.6147,-3.6148,-3.6163,-3.6185,-3.618,-3.62,-3.6196,-3.6222,-3.6227,-3.6472,-3.6477,-3.6603,-3.6665,-3.6759,0,0,0,-3.6133,-3.6271,-3.615,-3.6297,-3.6164,-3.6271,-3.6179,-3.6256,-3.6296,-3.6224,-3.6474,-3.6479,-3.66,-3.6657,-3.6751,-3.6846,-3.6889,0,0,-3.6332,-3.6297,-3.6379,-3.6272,-3.6412,-3.6262,-3.6423,-3.6416,-3.6377,-3.6448,-3.6454,-3.6613,-3.6664,-3.6757,-3.7118,-3.7153,0,0,0,-3.6458,-3.6518,-3.6545,-3.6585,-3.6582,-3.6586,-3.6549,-3.6547,-3.6604,-3.6423,-3.6671,-3.67,-3.6752,-3.6796,-3.6825,-3.6868,-3.6501,-3.65,-3.65,-3.6806,-3.6748,-3.6881,-3.6828,-3.6867,-3.6828,-3.6854,-3.6844,-3.6775,-3.6835,-3.6855,-3.7082,-3.7134,-3.7156,-3.7201,-3.6901,-3.6901,-3.6902,-3.6902,-3.7093,-3.7169,-3.7073,-3.7168,-3.7107,-3.7186,-3.7153,-3.7102,-3.7167,-3.7061,-3.7105,-3.6995,-3.7196,-3.7233,-3.6912,-3.691,-3.6909,-3.6908,-3.6907,-3.7315,-3.7341,-3.7335,-3.7385,-3.743,-3.7371,-3.7438,-3.7379,-3.7324,-3.7367,-3.7383,-3.7381,-3.7371,-3.7379,-3.738,-3.7381,-3.7381,-3.7382,-3.7382,-3.7548,-3.7536,-3.7599,-3.7608,-3.7625,-3.764,-3.7601,-3.7617,-3.7619,-3.7571,-3.7571,-3.7497,-3.7227,-3.716,-3.7394,-3.7392,-3.739,-3.7389,-3.7389,-3.7861,-3.778,-3.7878,-3.7895,-3.79,-3.7949,-3.7873,-3.7909,-3.7913,-3.7948,-3.7864,-3.7674,-3.7633,-3.7609,-3.7554,-3.7876,-3.7876,-3.7876,-3.7876,-3.8049,-3.8022,-3.8108,-3.8139,-3.8163,-3.8104,-3.8216,-3.8188,-3.8146,-3.8145,-3.809,-3.8011,-3.7989,-3.7962,-3.793,-3.7877,-3.8274,-3.8275,-3.8275,-3.8238,-3.8211,-3.8318,-3.8275,-3.8274,-3.8275,-3.8379,-3.8419,-3.8355,-3.829,-3.8143,-3.8126,-3.7999,-3.796,-3.7893,-3.7845,-3.7748,0,0]},{"header":{"parameterUnit":"m.s-1","parameterCategory":1,"la1":30.2992,"la2":30.254,"lo1":-89.0895,"lo2":-89.0443,"dy":0.0025,"dx":0.0025,"nx":19,"ny":19,"refTime":"2026-04-09T21:00:00:Z","depth":0,"parameterNumber":3,"parameterNumberName":"V-component_of_WINDS"},"data":[0,0,0,1.4303,1.4303,1.4293,1.4293,1.4294,1.4294,0,0,0,0,0,0,0,0,0,0,0,1.4314,1.4314,1.4303,1.4303,1.4293,1.4293,1.4294,1.4294,0,0,0,0,0,0,0,0,0,0,0,1.4314,1.4314,1.4315,1.4303,1.4293,1.4293,1.4294,1.4296,0,0,0,0,0,0,0,0,0,0,1.4304,1.4322,1.4314,1.4315,1.4303,1.4293,1.4293,1.4296,1.4296,1.4304,0,1.4313,0,1.4303,1.4295,1.4295,0,0,0,1.4297,1.4322,1.4312,1.4315,1.4303,1.4293,1.4296,1.4296,1.4296,1.4304,1.4313,1.4313,1.4304,1.4295,1.4295,1.4361,1.4361,0,0,1.4297,1.4317,1.4312,1.4312,1.4314,1.4296,1.4295,1.4296,1.4307,1.4313,1.4312,1.4304,1.4295,1.4295,1.436,1.4361,0,0,0,1.4303,1.4317,1.4307,1.4313,1.431,1.4296,1.4295,1.4307,1.4302,1.4312,1.4304,1.4295,1.4295,1.4359,1.436,1.4408,0,0,0,1.4303,1.432,1.4307,1.4319,1.431,1.4308,1.4306,1.4302,1.4301,1.4304,1.4295,1.4295,1.4359,1.436,1.4405,1.4427,0,0,0,1.4312,1.4321,1.4323,1.432,1.4316,1.4307,1.4302,1.4301,1.4296,1.4295,1.4295,1.4358,1.436,1.4403,1.4423,1.4451,0,0,0,1.4327,1.4365,1.4324,1.4363,1.4317,1.4337,1.4302,1.4316,1.4321,1.4295,1.4359,1.436,1.4402,1.4421,1.4448,1.4477,1.4491,0,0,1.4386,1.4373,1.4394,1.4357,1.439,1.4337,1.4377,1.4363,1.4345,1.4357,1.4358,1.4406,1.4423,1.445,1.4562,1.4573,0,0,0,1.442,1.4436,1.444,1.4445,1.4436,1.4429,1.4407,1.4402,1.4411,1.4355,1.4423,1.4432,1.4447,1.446,1.447,1.4482,1.4367,1.4367,1.4367,1.453,1.4506,1.454,1.4515,1.4521,1.4498,1.4501,1.449,1.4463,1.448,1.4483,1.4554,1.457,1.4577,1.459,1.4496,1.4497,1.4497,1.4497,1.4614,1.4633,1.4598,1.4618,1.4593,1.461,1.459,1.4571,1.4584,1.4549,1.4561,1.4526,1.459,1.46,1.45,1.45,1.4499,1.4499,1.4499,1.4684,1.4689,1.4682,1.4688,1.4695,1.4668,1.4683,1.4659,1.4636,1.4648,1.4649,1.4648,1.4645,1.465,1.4651,1.4651,1.4651,1.4651,1.4651,1.4759,1.475,1.4765,1.4758,1.4759,1.4757,1.4735,1.4735,1.473,1.4711,1.4711,1.4684,1.46,1.458,1.4655,1.4654,1.4654,1.4654,1.4653,1.4854,1.4829,1.4851,1.4852,1.4843,1.4852,1.4822,1.4824,1.4821,1.4829,1.4799,1.4742,1.4727,1.4719,1.4702,1.4804,1.4804,1.4804,1.4804,1.4913,1.4903,1.4921,1.4924,1.4924,1.4899,1.4926,1.4911,1.489,1.4887,1.4869,1.4844,1.4837,1.4826,1.4816,1.48,1.4925,1.4925,1.4925,1.497,1.4959,1.4986,1.4966,1.4957,1.4951,1.4976,1.4981,1.4953,1.4929,1.4884,1.4879,1.4839,1.4827,1.4802,1.4787,1.4757,0,0]}]]